RH
100 97 95 96 91 90 88 90 92 99 99 100 100 100 99 100 100 100 99 100 98 96 95 94 90 94 92 92 91 92 95 96 96 95 82 86 89 86
100 100 99 99 100 97 97 96 93 91 98 99 100 100 99 100 100 100 100 98 98 100 100 99 96 97 93 94 91 95 94 92 91 96 89 91 88 86
100 100 100 100 99 100 99 98 98 92 95 100 97 98 99 100 100 100 100 100 100 97 100 100 98 96 98 97 93 92 95 97 94 92 91 90 88 91
100 100 100 100 100 100 100 99 100 98 91 99 100 100 99 98 100 100 100 100 100 100 100 100 100 100 95 90 89 92 93 98 95 92 87 85 86 88
99 100 100 100 100 100 100 99 99 100 97 97 100 100 100 99 99 97 99 100 100 100 100 100 100 96 90 88 87 92 93 94 86 89 91 89 87 86
97 94 96 94 96 98 98 99 97 96 98 97 99 100 100 100 100 100 100 99 100 100 100 99 99 100 100 98 92 89 90 90 90 92 91 91 92 94
99 98 98 99 98 93 96 98 96 98 99 99 99 98 98 99 99 100 100 100 100 100 100 100 98 96 98 99 97 90 84 86 94 96 96 95 92 88
97 98 98 100 100 100 100 99 98 96 98 99 99 99 98 98 98 98 99 99 99 100 100 100 100 100 99 99 100 98 87 87 91 94 96 94 95 96
97 97 86 78 89 98 99 100 100 99 97 97 98 98 98 98 98 98 98 98 98 98 99 98 98 98 98 99 98 100 98 99 98 99 98 96 96 96
100 100 100 96 90 89 98 100 99 85 80 91 93 95 96 97 97 97 97 97 97 97 97 98 97 97 97 97 97 97 96 96 94 99 99 99 98 96
97 92 99 94 96 97 97 97 99 99 100 99 96 94 82 90 94 96 97 98 98 97 96 97 96 96 96 95 95 97 99 99 98 98 96 90 88 90
81 90 91 96 91 98 96 95 96 94 96 96 94 95 86 98 87 91 94 98 98 98 96 96 96 96 97 91 67 49 82 94 97 99 93 92 93 91
70 80 93 90 94 94 97 98 99 94 94 97 99 97 98 99 98 95 92 97 91 86 97 94 100 100 97 98 80 58 63 76 94 97 95 97 98 99
63 79 97 86 84 94 88 85 92 77 96 94 88 86 88 93 99 100 95 98 97 94 98 99 98 96 92 92 87 89 73 59 60 81 89 97 97 96
68 75 81 74 73 69 72 65 56 78 82 82 84 89 92 95 95 100 100 100 98 93 93 96 97 98 97 92 86 88 91 86 92 94 94 96 96 96
80 79 83 83 79 77 69 60 49 49 58 66 72 75 79 86 89 95 93 96 94 89 93 97 96 98 100 99 98 98 96 100 99 100 97 97 96 95
81 88 77 65 61 61 62 63 63 61 58 57 53 53 54 59 71 83 90 91 89 93 91 100 95 97 97 98 98 96 98 98 97 97 99 100 97 91
89 73 65 59 58 58 58 62 67 70 72 67 67 64 62 60 60 67 76 77 77 88 90 95 96 93 90 89 90 99 97 96 98 98 99 98 93 86
80 86 78 72 70 67 63 64 69 74 86 84 81 79 76 78 76 74 66 60 62 64 68 77 87 92 84 78 70 86 82 95 96 96 95 92 91 89
62 74 73 63 68 71 69 70 69 67 72 85 87 90 93 89 87 83 79 79 76 74 74 73 70 69 69 71 83 83 93 86 77 90 94 97 97 92
67 58 50 43 44 47 48 47 53 72 89 81 78 86 92 92 90 89 88 84 81 79 82 78 76 87 92 96 86 74 77 94 92 90 91 90 82 81
71 65 51 47 42 40 40 38 39 45 57 60 82 88 87 86 87 88 84 81 80 81 85 91 93 99 100 92 82 74 80 84 87 84 88 86 88 89
66 59 52 43 37 37 39 42 44 46 46 46 49 71 91 95 94 86 83 84 86 87 87 90 90 100 100 100 97 96 97 95 92 88 85 81 81 81
Wind_Speed
20 19 17 13 11 9 6 12 6 3 2 2 3 10 8 12 36 38 38 36 34 34 35 35 35 34 33 30 28 25 22 19 18 16 20 16 13 13
19 20 20 17 13 13 13 13 9 7 3 1 3 5 5 7 22 30 33 33 32 34 34 35 36 36 33 31 30 29 25 23 20 16 20 15 13 14
17 16 16 16 15 12 14 12 11 10 8 4 5 4 3 2 10 17 30 30 32 30 31 35 36 35 34 32 31 29 24 21 21 16 16 16 16 14
18 19 18 14 14 13 13 14 10 7 10 11 8 7 7 4 4 9 13 21 26 28 29 33 40 38 36 33 29 26 24 19 15 15 16 16 16 16
20 19 17 14 14 14 13 13 10 9 8 12 7 9 6 9 7 6 10 17 24 24 23 26 30 35 35 32 28 25 22 20 19 17 14 16 16 15
22 21 18 16 16 13 12 12 12 12 11 14 11 9 8 8 11 11 11 11 16 22 23 22 20 16 19 22 23 23 20 19 16 15 17 17 17 16
29 27 21 18 17 14 13 12 12 14 11 10 8 7 5 5 7 7 9 13 11 14 15 16 17 16 14 10 12 14 17 18 15 14 13 13 16 17
25 24 25 25 21 20 20 17 13 14 14 10 8 6 6 5 5 5 8 6 3 14 13 10 11 14 15 15 11 15 16 15 16 14 14 14 13 12
21 19 19 18 19 21 21 21 22 19 15 13 11 7 6 5 5 5 5 4 3 5 13 9 12 11 12 15 16 12 12 13 15 16 16 16 15 14
19 16 17 17 16 17 17 20 21 21 17 16 14 10 8 6 6 4 4 5 4 3 5 2 9 13 16 17 16 17 15 16 17 17 15 14 15 14
19 25 22 22 16 14 15 16 15 16 15 15 14 13 11 10 7 6 6 5 3 0 6 3 5 6 10 14 18 20 19 17 18 18 16 14 15 14
16 17 16 17 16 15 16 15 16 11 9 8 9 10 9 9 9 7 5 5 4 1 4 5 3 4 3 10 12 19 23 24 21 19 17 17 17 17
11 13 13 15 17 17 19 18 13 11 12 10 9 8 7 7 5 4 2 2 0 2 3 7 4 6 6 3 7 14 17 21 22 21 22 21 21 20
10 9 12 13 12 13 14 13 11 11 11 10 11 10 8 6 5 5 2 1 3 6 2 8 5 9 10 9 10 10 18 19 19 19 23 24 21 22
11 11 11 10 10 11 10 9 8 9 9 9 9 7 6 5 6 5 5 3 3 5 5 10 13 11 12 14 13 13 12 20 23 26 29 31 29 27
11 10 11 11 11 9 9 11 11 10 8 7 5 4 4 6 6 6 5 5 4 4 6 6 10 10 11 13 14 12 11 8 9 17 22 21 20 21
7 5 6 7 7 7 8 10 10 9 8 7 6 5 4 4 4 5 4 5 4 5 6 4 6 9 12 13 12 12 11 11 12 10 11 14 15 16
10 10 8 7 7 7 7 7 7 7 6 5 4 4 4 4 5 4 4 4 6 5 5 6 7 9 9 9 12 13 11 12 11 12 13 14 17 18
10 8 7 6 5 5 5 5 5 4 4 3 3 4 4 4 5 5 5 6 6 8 9 9 9 10 12 8 12 7 11 11 7 8 10 13 15 14
9 8 7 6 4 3 2 2 1 2 3 4 4 5 4 4 5 5 6 7 9 10 11 10 10 12 14 15 16 16 11 11 14 15 12 12 13 17
10 9 8 7 6 5 3 2 1 1 2 3 4 4 5 5 6 6 8 9 10 11 13 14 14 14 15 13 14 16 13 9 12 12 13 15 17 18
14 12 11 9 9 8 7 6 4 3 3 4 4 5 6 7 8 9 9 9 10 11 12 14 15 15 13 16 17 16 14 13 16 16 17 19 18 16
16 15 13 12 12 11 10 8 6 5 5 5 6 7 8 9 9 10 12 12 11 11 11 12 10 9 11 10 12 13 13 14 18 19 22 22 23 26
Wind_Direction
159 160 154 148 141 140 164 170 129 147 124 134 155 187 188 164 164 172 181 188 195 189 188 185 183 182 179 178 174 178 175 171 170 169 181 180 177 177
147 149 145 143 144 144 144 149 162 124 109 121 45 165 194 167 171 182 184 189 194 189 187 187 185 183 185 184 180 180 179 181 184 181 186 180 175 184
135 137 130 139 144 141 140 134 144 154 124 109 140 83 179 137 162 169 181 185 193 197 197 193 188 187 184 181 181 178 176 179 180 187 189 191 190 186
122 126 120 130 129 126 127 131 144 148 135 131 157 128 167 192 40 131 156 182 187 199 209 199 191 185 182 180 182 182 184 183 193 195 190 195 199 194
108 107 108 117 108 113 122 124 118 112 133 143 132 152 128 171 175 116 87 121 144 151 147 154 170 181 184 185 186 187 188 198 202 199 209 197 203 209
92 92 92 99 104 105 109 109 111 100 101 115 107 109 135 157 174 164 144 125 119 142 153 150 145 151 163 175 184 194 202 208 204 204 207 208 208 209
90 83 77 83 83 94 95 89 98 101 92 94 94 100 91 124 142 161 151 160 147 144 145 146 159 157 145 149 176 195 199 204 206 209 215 224 225 220
80 80 85 88 81 80 80 79 81 93 91 87 76 83 97 102 118 157 163 155 143 205 188 175 179 178 177 172 189 207 212 213 213 217 224 227 231 236
82 81 81 80 82 82 80 78 73 72 82 93 91 77 85 94 118 120 147 160 121 164 202 203 214 214 219 213 204 202 216 223 228 227 226 223 227 237
87 83 90 84 81 85 83 80 73 69 77 82 85 84 86 95 105 114 134 147 150 193 213 186 236 234 232 228 225 224 224 226 226 227 228 238 241 234
81 77 90 87 84 87 89 86 82 84 81 75 72 73 76 84 92 102 106 123 82 316 228 210 238 233 239 246 235 228 234 233 229 228 233 241 244 247
74 73 80 88 82 81 86 91 88 77 83 85 80 79 80 80 70 85 108 132 118 119 258 206 213 206 282 241 239 244 238 236 233 234 238 238 236 240
84 72 77 84 78 83 83 81 85 93 85 89 83 69 66 67 67 44 76 105 210 299 289 209 222 219 234 310 245 237 234 238 231 233 234 240 239 240
95 80 77 88 83 84 83 79 77 85 78 80 82 72 64 48 44 48 64 227 235 241 271 241 246 229 240 254 254 258 238 234 234 233 237 235 234 238
98 99 96 90 93 81 78 76 85 81 79 75 74 67 48 32 36 36 22 0 307 272 266 251 248 256 253 257 265 248 244 249 245 243 244 246 247 248
110 104 97 93 92 89 78 74 72 72 81 79 73 53 37 34 40 35 18 348 325 311 309 282 271 266 270 263 262 270 241 237 246 240 243 250 255 263
132 117 99 100 96 86 78 73 67 64 68 65 61 51 42 24 13 16 16 347 348 1 339 347 295 278 271 269 273 267 262 247 248 251 247 253 258 255
147 140 134 126 115 103 90 86 75 67 65 60 51 31 26 17 10 5 340 323 303 313 320 322 322 318 305 293 272 273 280 265 264 255 251 260 267 266
147 141 136 128 117 106 95 80 73 58 49 56 46 34 22 355 343 334 334 327 311 299 293 300 303 300 293 282 278 278 284 292 287 279 274 270 273 272
160 158 168 165 152 135 118 100 68 24 22 25 22 12 3 356 344 330 315 300 292 293 293 289 282 280 278 283 291 288 274 275 281 280 281 282 275 279
193 192 189 191 197 200 198 206 245 323 343 326 323 323 327 323 316 317 310 306 308 304 295 290 289 291 286 284 278 274 274 262 271 281 285 283 280 283
202 201 204 211 210 201 202 208 221 240 256 275 276 278 279 275 275 278 279 285 288 289 291 293 290 289 276 262 268 278 278 279 277 280 274 267 272 276
209 210 213 215 210 206 207 213 225 241 262 284 287 276 265 261 266 268 267 267 267 268 274 283 290 284 272 277 287 293 288 280 284 286 278 275 277 277